Winnipeg 'A' Cs, Canada

5:15 AM CDT on September 25, 2016 (GMT -0500)
Winnipeg International

Weather History for CYWG - December, 2013

Change the Weather History Date:

Tuesday, December 3, 2013

  Actual Average Record
Temperature  
Mean Temperature 12 °F -  
Max Temperature 15 °F 23 °F 53 °F (1996)
Min Temperature 8 °F 7 °F -20 °F (2006)
Degree Days  
Heating Degree Days 54    
Moisture  
Dew Point 10 °F    
Average Humidity 86    
Maximum Humidity 93    
Minimum Humidity 79    
Precipitation  
Precipitation 0.00 in - - ()
Sea Level Pressure  
Sea Level Pressure 30.09 in    
Wind  
Wind Speed 16 mph ()    
Max Wind Speed 21 mph    
Max Gust Speed 28 mph    
Visibility 9.3 miles    
Events Snow    
Averages and records for this station are not official NWS values.
T = Trace of Precipitation, MM = Missing Value Source: Averaged Metar Reports

Daily Weather History Graph

Daily Weather History Graph

Search for Another Location

Airport or City:

Trip Planner

Search our weather history database for the weather conditions in past years. The results will help you decide how hot, cold, wet, or windy it might be!

Date:

Astronomy

Dec. 03, 2013 Rise Set
Actual Time 8:08 AM CST 4:29 PM CST
Civil Twilight 7:30 AM CST 5:06 PM CST
Nautical Twilight 6:49 AM CST 5:47 PM CST
Astronomical Twilight 6:10 AM CST 6:26 PM CST
Moon 8:36 AM CST (12/3) 5:36 PM CST (12/3)
Length of Visible Light 9h 36m
Length of Day
8h 21m
New Moon, 1% of the Moon is Illuminated
Dec 3
New Moon
Dec 9
First Quarter
Dec 17
Full
Dec 25
Last Quarter
Jan 1
New

Hourly Weather History & Observations

Time (CST) Temp. Windchill Dew Point Humidity Pressure Visibility Wind Dir Wind Speed Gust Speed Precip Events Conditions
12:00 AM 15.8 °F -0.2 °F 12.2 °F 86% 30.02 in 15.0 mi NNE 17.3 mph - N/A Snow Light Snow
1:00 AM 15.8 °F -0.6 °F 12.2 °F 86% 30.02 in 12.0 mi NNE 18.4 mph 24.2 mph N/A Snow Light Snow
2:00 AM 15.8 °F -1.5 °F 12.2 °F 86% 30.03 in 12.0 mi NNE 20.7 mph - N/A Snow Light Snow
3:00 AM 15.8 °F -0.2 °F 12.2 °F 86% 30.04 in 15.0 mi NNE 17.3 mph 24.2 mph N/A Snow Light Snow
4:00 AM 12.2 °F -4.8 °F 10.4 °F 92% 30.04 in 15.0 mi NNE 17.3 mph 26.5 mph N/A Snow Light Snow
5:00 AM 10.4 °F -8.2 °F 8.6 °F 92% 30.04 in 15.0 mi NNE 19.6 mph 26.5 mph N/A Snow Low Drifting Snow
6:00 AM 10.4 °F -7.2 °F 6.8 °F 85% 30.06 in 15.0 mi NNE 17.3 mph - N/A Snow Low Drifting Snow
7:00 AM 8.6 °F -9.5 °F 5.0 °F 85% 30.08 in 15.0 mi North 17.3 mph 25.3 mph N/A Snow Low Drifting Snow
8:00 AM 8.6 °F -10.0 °F 5.0 °F 85% 30.09 in 15.0 mi North 18.4 mph - N/A Snow Low Drifting Snow
9:00 AM 8.6 °F -10.0 °F 5.0 °F 85% 30.10 in 15.0 mi NNE 18.4 mph 24.2 mph N/A Snow Low Drifting Snow
9:38 AM 10.4 °F -7.7 °F 6.8 °F 85% 30.11 in 15.0 mi NNE 18.4 mph 27.6 mph N/A Snow Light Snow
10:00 AM 12.2 °F -5.8 °F 6.8 °F 79% 30.11 in 15.0 mi NNE 19.6 mph 27.6 mph N/A Snow Light Snow
11:00 AM 12.2 °F -4.8 °F 8.6 °F 85% 30.11 in 15.0 mi NNE 17.3 mph 24.2 mph N/A Snow Light Snow
12:00 PM 14.0 °F -3.4 °F 8.6 °F 79% 30.11 in 6.0 mi NNE 19.6 mph 26.5 mph N/A Snow Light Snow
1:00 PM 14.0 °F -2.5 °F 10.4 °F 86% 30.10 in 6.0 mi NNE 17.3 mph - N/A Snow Light Snow
2:00 PM 15.8 °F -1.1 °F 10.4 °F 79% 30.10 in 3.0 mi NNE 19.6 mph - N/A Snow Light Snow
3:00 PM 15.8 °F -1.1 °F 12.2 °F 86% 30.10 in 6.0 mi NNE 19.6 mph - N/A Snow Light Snow
4:00 PM 15.8 °F 0.3 °F 12.2 °F 86% 30.12 in 10.0 mi NNE 16.1 mph 23.0 mph N/A Snow Light Snow
5:00 PM 15.8 °F -0.6 °F 12.2 °F 86% 30.13 in 5.0 mi NNE 18.4 mph - N/A Snow Light Snow
6:00 PM 15.8 °F 0.9 °F 12.2 °F 86% 30.12 in 2.0 mi NNE 15.0 mph 21.9 mph N/A Snow Light Snow
7:00 PM 15.8 °F -0.6 °F 12.2 °F 86% 30.13 in 2.0 mi NNE 18.4 mph - N/A Snow Light Snow
8:00 PM 15.8 °F 0.3 °F 12.2 °F 86% 30.15 in 2.0 mi NNE 16.1 mph - N/A Snow Light Snow
9:00 PM 15.8 °F 0.9 °F 12.2 °F 86% 30.15 in 2.5 mi NNE 15.0 mph - N/A Snow Light Snow
10:00 PM 15.8 °F -0.2 °F 12.2 °F 86% 30.14 in 2.5 mi NNE 17.3 mph - N/A Snow Light Snow
10:31 PM 14.0 °F -2.5 °F 12.2 °F 93% 30.13 in 3.0 mi NNE 17.3 mph - N/A Snow Light Snow
11:00 PM 14.0 °F -3.0 °F 10.4 °F 86% 30.12 in 4.0 mi NNE 18.4 mph - N/A Snow Light Snow